Tracking 19706 objects as of 16-Jun-2019
HD Live streaming from Space Station
objects crossing your sky now

TITAN 3C TRANSTAGE DEB

Track TITAN 3C TRANSTAGE DEB now!


NORAD ID: 28807
Int'l Code: 1965-108BZ
Perigee: 531.1 km
Apogee: 31,062.0 km
Inclination: 25.4 °
Period: 547.4 minutes
Semi major axis: 22167 km
RCS: 0.1068 m2 (medium)
Launch date: December 21, 1965
Source: United States (US)
Launch site: AIR FORCE EASTERN TEST RANGE (AFETR)

Note: This is SATELLITE DEBRIS
aabbcc
Your satellite tracking list
Your tracking list is empty




NASA's NSSDC Master Catalog

Two Line Element Set (TLE):
1 28807U 65108BZ  19154.47026984 -.00000085  00000-0 -27497-3 0  9992
2 28807  25.3943 240.2466 6886391 159.8264 253.0040  2.63043008152012
Source of the keplerian elements: AFSPC